Regional Weather Roundup
Issued by NWS State College, PA

Home | Current Version | Previous Version | Graphics & Text | Print | Product List | Glossary Off
Versions: 1 2 3 4 5 6 7 8 9 10 11 12 13 14 15 16 17 18 19 20 21 22 23 24 25 26 27 28 29 30 31 32 33 34 35 36 37 38 39 40 41 42 43 44 45 46 47 48 49 50

000
ASUS41 KCTP 281310
RWRCTP

REGIONAL WEATHER ROUNDUP
NATIONAL WEATHER SERVICE STATE COLLEGE PA
900 AM EDT SAT MAY 28 2016

Note: "fair" indicates few or no clouds below 12,000 feet with no
significant weather and/or obstructions to visibility.

* = STATION THAT DOES NOT REPORT PRECIPITATION /E.G. RAIN...SNOW...ETC/
    THUNDER OR FOG.

PAZ002>004-007>009-013>016-020>023-029>032-281400-
WESTERN PENNSYLVANIA

CITY           SKY/WX    TMP DP  RH WIND       PRES   REMARKS
ERIE           CLOUDY    80  67  64 S7        30.09R
MEADVILLE      SUNNY     72  65  78 S5        30.14R
FRANKLIN*      SUNNY     73  64  73 S7        30.17R
NEW CASTLE     FAIR      75  66  73 VRB3      30.14R
BEAVER COUNTY  SUNNY     73  64  73 S5        30.14
BUTLER*        SUNNY     73  64  73 S5        30.17R
PITTSBURGH INT PTSUNNY   74  63  68 CALM      30.14R
PITTSBURGH     MOSUNNY   74  63  68 S9        30.14R
INDIANA*       SUNNY     77  64  65 SW5       30.20R
LATROBE        MOSUNNY   72  68  88 CALM      30.16S
WASHINGTON CO* SUNNY     73  64  73 S6        30.15R
$$

PAZ004>006-010>012-017>019-024>028-033>037-041-042-045-046-049>053-281400-
CENTRAL PENNSYLVANIA

CITY           SKY/WX    TMP DP  RH WIND       PRES   REMARKS
BRADFORD       MOSUNNY   73  63  70 CALM      30.19R
DUBOIS         SUNNY     72  65  78 CALM      30.17R
CLEARFIELD     SUNNY     71  63  75 CALM      30.17S
JOHNSTOWN      SUNNY     72  60  66 W5        30.20R
ALTOONA        CLOUDY    72  64  76 CALM      30.18S
STATE COLLEGE  SUNNY     72  66  83 CALM      30.17R
WILLIAMSPORT   SUNNY     72  65  78 CALM      30.13S
SELINSGROVE    SUNNY     75  66  73 S3        30.14S
FT INDIANTOWN  MOSUNNY   73  68  85 CALM      30.15R
CAPITAL CITY   MOSUNNY   75  67  76 CALM      30.14S
HARRISBURG     PTSUNNY   76  68  76 CALM      30.13S HAZE
YORK           SUNNY     76  68  76 CALM      30.14S
$$

PAZ038>040-043-044-047-048-054-055-060>062-067>071-281400-
EASTERN PENNSYLVANIA

CITY           SKY/WX    TMP DP  RH WIND       PRES   REMARKS
SCRANTON       SUNNY     77  66  68 SW6       30.15R
MOUNT POCONO   SUNNY     74  63  68 W6        30.19R
ALLENTOWN      SUNNY     76  66  71 S3        30.15R
QUAKERTOWN*    SUNNY     75  66  73 SW5       30.16S
READING        SUNNY     77  66  68 VRB3      30.14R
LANCASTER      SUNNY     76  67  73 S3        30.14S
COATESVILLE    SUNNY     73  66  78 VRB3      30.18R
POTTSTOWN      SUNNY     74  66  76 S5        30.16S
BLUE BELL      SUNNY     75  64  69 SW3       30.15R
DOYLESTOWN     SUNNY     74  63  68 SW5       30.15R
WILLOW GROVE   NOT AVBL
NORTH PHILA    SUNNY     78  64  61 SW8       30.16R
PHILADELPHIA   PTSUNNY   75  61  61 SW10      30.16R
$$



USA.gov is the U.S. government's official web portal to all federal, state and local government web resources and services.